To NAV CANADA Home Page Login to a new session Search on AWWS site Feedback and Comments Disclaimer Vers la page française équivalente Tips FAQ What's new on the site To the Forecasts and Observations / NOTAM section To "File a Flight Plan" website Publications and other links Update of the User's profile FIC Telephone Numbers My Weather Data Folder Route Weather Data Regional Weather Data Local Weather Data To the Forecasts and Observations / NOTAM section
Request Generated 03/28/2017 at 02:16:12 UTC . Weather information available at that time is displayed.

METAR/TAF

FARO/YT    

LWIS CZFA 280200Z AUTO 11008G15KT 070V140 01/M07 A2955=
LWIS CZFA 280100Z AUTO 10010G18KT 070V140 01/M08 A2955=
LWIS CZFA 280000Z AUTO 11008G19KT 070V140 01/M07 A2956=

*** REMARK        : Forecast period has ended; this was the last TAF issued
*** REMARQUE : La période de prévision est échue; ceci était le dernier TAF qui a été émis
TAF CZFA 271738Z 2718/2722 12008KT P6SM SCT050 BKN100 OVC200 TEMPO
2718/2722 5SM -SN
RMK NXT FCST WILL BE ISSUED AT 281545Z=
Your time UTC time
Weather data provided by Environment Canada and NAV CANADA